Regional Weather Roundup
Issued by NWS Midland/Odessa, TX

Skip options and go directly to product.
Home | Oldest Version | Previous Version | Current Version | All | Text Only | Save Text | Print | Product List | Glossary On

Skip product version selection by date and time.   
516
ASUS44 KMAF 261110
RWRMAF
MIDLAND AREA WEATHER ROUNDUP
NATIONAL WEATHER SERVICE MIDLAND TX
500 AM CST SUN FEB 26 2017

...IN SOUTHWEST TEXAS AND SOUTHEAST NEW MEXICO...

CITY           SKY/WX    TMP DP  RH WIND       PRES   REMARKS
ALPINE         CLEAR     42   6  22 SW10      29.97R WCI  36
ANDREWS        FAIR      44  30  58 SW10      29.86S WCI  38
ARTESIA        CLEAR     34  12  40 CALM      29.83S
BIG SPRING     CLEAR     45  30  56 S17       29.88S WCI  37
CARLSBAD       PTCLDY    35  22  58 CALM      29.83S
DRYDEN           N/A     44  33  65 N8        29.89R WCI  39
FORT STOCKTON  CLEAR     42  30  62 S10       29.88R WCI  36
GUAD PASS      CLOUDY    42   4  20 SW18G25     N/A  WCI  34
HOBBS          CLOUDY    34  27  75 SW5       29.86S WCI  30
MARFA          CLEAR     27   7  42 E7        29.95S WCI  19
MIDLAND AIRPK  CLEAR     48  30  49 S14G20    29.86F
MIDLAND INTL   CLEAR     46  29  51 S14       29.86R WCI  40
ODESSA           N/A     47  28  47 MISG      29.86F
PECOS          CLOUDY    32  13  46 CALM      29.87F
PRESIDIO       FAIR      47   8  21 N5        29.92R
SEMINOLE       CLEAR     40  29  67 SW12      29.85F WCI  32
SNYDER         CLEAR     37  30  75 S9        29.87S WCI  31
WINK           CLEAR     37  29  72 SE8       29.84F WCI  31
$$
...OTHER STATIONS IN TEXAS...

CITY           SKY/WX    TMP DP  RH WIND       PRES   REMARKS
ABILENE        CLEAR     44  29  55 S15       29.88S WCI  37
AMARILLO       CLOUDY    34  26  72 NW5       29.81S WCI  30
AUSTIN         CLEAR     36  34  92 CALM      29.98F
BROWNSVILLE    CLEAR     69  65  86 SE7       29.93R
CORPUS CHRISTI MOCLDY    63  60  90 E8        29.95F
DALLAS FTW     PTCLDY    42  28  57 SE6       29.96S WCI  38
DEL RIO        CLOUDY    51  43  74 E10       29.93F
EL PASO        CLEAR     45   6  20 SE7       29.91S
HOUSTON INT    PTCLDY    48  38  68 E12       30.01F
LUBBOCK        PTCLDY    39  29  67 SW12      29.82S WCI  32
SAN ANGELO     CLEAR     38  30  73 NE3       29.91S
SAN ANTONIO    CLOUDY    49  39  68 CALM      29.97F
WACO           CLEAR     40  32  73 E3        29.98F
WICHITA FALLS  NOT AVBL
$$
...OTHER LOCATIONS IN NEW MEXICO...

CITY           SKY/WX    TMP DP  RH WIND       PRES   REMARKS
ALAMAGORDO     CLOUDY    50   7  17 SW8       29.92R
ALBUQUERQUE    PTCLDY    39   9  29 SW9       29.89R WCI  33
CANNON AFB     CLOUDY    36  17  46 NW12      29.80F WCI  28
CLOVIS         CLOUDY    34  18  51 W9        29.81S WCI  26
HOLLOMAN AFB   CLOUDY    50   8  18 S5        29.94R
ROSWELL        CLOUDY    34  13  41 NW6         N/A  WCI  29
RUIDOSO        CLOUDY    39   1  20 SW9       29.89S WCI  33
SANTA FE       MOCLDY    26   7  44 CALM      29.85R
TRUTH OR CONSE CLEAR     38   5  25 NW7       29.88S WCI  33
TUCUMCARI      PTCLDY    31  17  56 SW9       29.80R WCI  23
$$

  • National Weather Service
  • Southern Region Headquarters
  • 819 Taylor Street, Room 10A06
  • Fort Worth, TX 76102
  • Page Author: NWS Fort Worth
  • Web Master: SR-SRH.Webmaster@noaa.gov
  •  
  • Page last modified: 30-Sep-2016 6:36 PM UTC
USA.gov is the U.S. government's official web portal to all federal, state and local government web resources and services.